STARLINK-35329, 65908

Orbit data source: Space-Track

STARLINK-35329, 65908 is a payload satellite owned by SpaceX/Seattle (US) in LEO that was launched on Tue, 07 Oct 2025 UTC via an FALCON 9 launch vehicle from the Air Force Eastern Test Range (AFETR). Payload-class satellites include a variety of spacecraft equipped with specific instruments for various scientific and technological missions. These include communications satellites like Starlink; space stations such as the ISS; scientific satellites like the Hubble; Earth observation satellites from companies like Planet Labs, Umbra, and HawkEye 360; GPS; miniature CubeSats for education and research; and military/defense satellites.

Loading next visibility...
Identifier
65908, 2025-224AC
Orbit
LEO
Country
Flag of USUS
Related business
Manufacturer
SpaceX/Seattle
Mission
Operational spacecraft
Bus & Motor
STARLINK V2MO, Unknown motor
Mass
575 kg wet, ~530 kg dry
Launch date (UTC)
2025-10-07 (2 months ago)
Launch vehicle
FALCON 9
Launch site
Air Force Eastern Test Range (AFETR)
Object type
Payload
Rocket body
Debris
Shape & HBR
Unknown shape, 17.7 m
Radar Cross Section
RCS unknown

Expand to show TLE details & history
Last TLE update: 17 hours ago

TLE from 17 hours ago
0 STARLINK-35329
1 65908U 25224AC  25340.67438088  .00052965  00000-0  17864-2 0  9996
2 65908  53.1626  83.3547 0000890  94.5638 265.5465 15.30223738 10621
Epoch: 2025-12-06T16:11Z
TLE epoch observation values (Epoch: 2025-12-06T16:11:06.508Z)
Latitude
0.00005°
Longitude
124.87889°
Altitude
476.092 km
Speed
7.629 km/s
True Right ascension
05h 33m 25s
True Declination
0° 00' 00"
Sunlit
Object was in full shadow at epoch
Visualization orbit readout
Latitude
Unknown
Longitude
Unknown
Altitude
Unknown
Speed
Unknown
Apparent Right ascension
Unknown
Apparent Declination
Unknown
Sunlit
N/A
Visualization observer readout
Local Sidereal Time
07:21:48
Azimuth
Unknown
Elevation
Unknown
Doppler factor
Unknown
Orbital elements
Apogee altitude
476.01 km
Perigee altitude
474.79 km
Semi-major axis
6,853.537 km
Eccentricity
0.00009
Inclination
53.1626°
RAAN
83.3547°
Arg. of periapsis
94.5638°
True anomaly
265.53633°
Mean anomaly
265.5465°
Eccentric anomaly
265.54142°
Mean motion
3.82535 °/min
Orbital period
94.11 mins
BSTAR
0.0017864
Loading maneuver chart data...
Computing Atmospheric mass density...
Loading historical data...
Loading historical data...
Loading historical data...
Loading historical data...
Loading historical data...
Loading historical data...
Loading historical data...

Documentation

Showing up to 5 results
|